This is the latest recevied weather packets stored in our database for station/object AH6GR. If no packets are shown the sender has not sent any weather packets the latest 10 day(s).
| Time | Temp. | Humidity | Pressure | Rain* | Wind** | Luminosity | Snow |
|---|---|---|---|---|---|---|---|
| 1778289638 | 24.44° C | 80% | 1016.4 hPa | 0 mm | - | - | - |
| 1778289307 | 24.44° C | 80% | 1015.4 hPa | 0 mm | - | - | - |
| 1778289038 | 24.44° C | 81% | 1016.4 hPa | 0 mm | - | - | - |
| 1778288456 | 23.89° C | 80% | 1015.3 hPa | 0 mm | - | - | - |
| 1778288438 | 24.44° C | 79% | 1016.4 hPa | 0 mm | - | - | - |
| 1778287839 | 24.44° C | 79% | 1016.5 hPa | 0 mm | - | - | - |
| 1778287525 | 23.89° C | 78% | 1015.5 hPa | 0 mm | - | - | - |
| 1778287238 | 24.44° C | 79% | 1016.5 hPa | 0 mm | - | - | - |
| 1778286667 | 24.44° C | 77% | 1015.6 hPa | 0 mm | - | - | - |
| 1778286639 | 24.44° C | 76% | 1016.6 hPa | 0 mm | - | - | - |
| 1778286054 | 25° C | 75% | 1016.6 hPa | 0 mm | - | - | - |
| 1778285735 | 24.44° C | 75% | 1015.6 hPa | 0 mm | - | - | - |
| 1778285454 | 24.44° C | 75% | 1016.6 hPa | 0 mm | - | - | - |
| 1778284838 | 24.44° C | 76% | 1016.6 hPa | 0 mm | - | - | - |
| 1778284807 | 24.44° C | 76% | 1015.6 hPa | 0 mm | - | - | - |
| 1778284238 | 24.44° C | 79% | 1016.6 hPa | 0 mm | - | - | - |
| 1778283948 | 23.89° C | 76% | 1015.7 hPa | 0 mm | - | - | - |
| 1778283639 | 24.44° C | 76% | 1016.6 hPa | 0 mm | - | - | - |
| 1778283038 | 24.44° C | 77% | 1016.7 hPa | 0 mm | - | - | - |
| 1778283020 | 24.44° C | 77% | 1015.8 hPa | 0 mm | - | - | - |
| 1778282438 | 24.44° C | 78% | 1017 hPa | 0 mm | - | - | - |
| 1778282165 | 23.89° C | 77% | 1016.1 hPa | 0 mm | - | - | - |
| 1778281839 | 24.44° C | 77% | 1017 hPa | 0 mm | - | - | - |
| 1778281238 | 24.44° C | 78% | 1017.1 hPa | 0 mm | - | - | - |
| 1778281231 | 24.44° C | 78% | 1016.2 hPa | 0 mm | - | - | - |
* Rain latest hour (hover to see other rain measurements)
** Current wind speed in m/s (hover to see current wind gust speed)